Погода в Буонметхуоте

Вьетнам     12°40′33″N   108°02′52″E
темп.,
°C
ветер,
м/с
пор.,
м/с
влажн.,
%
обл.,
%
осадки,
мм/ч
давл.,
гПа
погр.,
м
11 августа, чт
чт1101:00+21ю2698100 0.2 1007212
04:00+22ю1497100 0.4 1007160
07:00+22ю2698100 1.2 1008232
10:00+25зюз388779 0.4 10081060
13:00+26юз3976100 1.2 1007876
16:00+24юз3985100 1.3 1006557
19:00+22ю128887 1.3 100841
22:00+21ю139478 0.0 101074
12 августа, пт
пт1201:00+21ююз1594100 0.0 1009143
04:00+21ю1594100 0.0 1008143
07:00+23ю1489100 0.0 1010216
10:00+27зюз247173 0.1 10101013
13:00+28з357571 1.6 10071115
16:00+26сз248999 3.0 1006411
19:00+22ссв1196100 4.7 100913
22:00+22юв1197100 0.1 101112
13 августа, сб
сб1301:00+21ю139860 0.1 100971
04:00+21ю1397100 0.0 100980
07:00+22ю1295100 0.0 1010114
10:00+28з2468100 0.0 10101118
13:00+30сз2557100 0.0 10071468
16:00+27сз247696 0.4 1007462
19:00+23ссз139693 1.4 100870
22:00+22юз0097100 0.0 101020
14 августа, вс
вс1401:00+21ююв119899 0.0 100930
04:00+21ю119694 0.0 100925
07:00+23ю0292100 0.0 1010100
10:00+28зсз2370100 0.0 1010763
13:00+29зсз337281 0.7 10071007
16:00+26з2492100 4.6 1007308
19:00+23зюз0195100 6.9 100912
22:00+22ююв1197100 0.4 101012
15 августа, пн
пн1501:00+22ююв1197100 0.4 100920
04:00+22ююв1197100 0.0 100832
07:00+22ююз0196100 0.0 100926
10:00+24ююз0192100 0.0 1010145
13:00+29з236766 0.8 10071053
16:00+24сз2696100 6.4 1007205
19:00+22с1299100 13.9 100964
22:00+22св0098100 1.9 101116